"Pseudo-MPEC" for P10Hil9

Created 2018 Apr 29 11:18:04 UT using Find_Orb

Click here for an explanation of pseudo-MPECs

 
 Astrometry: 
     P10Hil9  C2018 04 12cVAstrometryAR3bH`aZ(:Fki`qEcFRno1(iQO,ap^t2vrWNbKtSF51
     P10Hil9  C2018 04 12;5-fZJ3f?\x!OP26!redacted;Kd3ia`Irh1w=?8RLY2wlxp(vq.F51
     P10Hil9  C2018 04 12%uo#FZjiu*9Gs$D6C7hppGR=DOhS.j($seeG(88q3vd4oiX_2oM\F51
     P10Hil9  C2018 04 12?'][ZTcC3K3oO[wAMH.I3B?VUXBJ,YDg%!q_:Lj'usr;iu#NEOCPF51
     P10Hil9 ^C2018 04 13.39940 14 22 15.882-11 21 06.94         19.2 GUNEOCP568
     P10Hil9 ^C2018 04 13.40163 14 22 22.467-11 20 15.35         19.4 GUNEOCP568

Station data:
(568) Mauna Kea  (N19.826116 W155.472200)  US/Hawaii.  Observer D. J. Tholen.
   2.24-m University of Hawaii reflector.
(F51) Pan-STARRS 1, Haleakala  (N20.707235 W156.255910)  US/Hawaii.
   Observers N. Primak, A. Schultz, S. Watters, J. Thiel, T. Goggia. Measurer
   PS1 Science Consortium. 1.8-m Ritchey-Chrétien + CCD.

Orbital elements:  P10Hil9
   Perihelion 2018 Jun 7.062650 +/- 0.262 TT =  1:30:12 (JD 2458276.562650)
Epoch 2018 Apr 13.0 TT = JDT 2458221.5   Earth MOID: 0.0039   Ma: 0.0516
M 325.38324 +/- 0.6                 (J2000 ecliptic)          AutoNEOCP
n   0.62867942 +/- 0.00892          Peri.   77.04858 +/- 0.12
a   1.34953210 +/- 0.0128           Node   203.01818 +/- 0.0028
e   0.4191051 +/- 0.00811           Incl.    6.34527 +/- 0.09
P   1.57/572.62d           H 28.5   G  0.15   U  9.6  
q 0.78393631 +/- 0.00358    Q 1.91512788 +/- 0.0292
From 6 observations 2018 Apr. 12-13 (23.2 hr); mean residual 0".10
Residuals in arcseconds: 
180412 F51  .10+  .09+    180412 F51  .17-  .14-    180413 568  .10+  .06+    
180412 F51  .07-  .02-    180412 F51  .14+  .07+    180413 568  .10-  .06-    

Ephemerides (geocentric):
Date (UTC) HH   RA              Dec         delta   r     elong  mag " sig PA
---- -- -- --  ------------   ------------  ------ ------ -----  --- ---- ---
2018 04 29 11  00 34 12.783   +22 13 25.23  .10729 .91325  27.5 31??  294 109
2018 04 29 12  00 34 15.924   +22 13 10.50  .10761 .91300  27.6 31??  294 109
2018 04 29 13  00 34 19.058   +22 12 55.81  .10793 .91276  27.6 31??  294 109
2018 04 29 14  00 34 22.184   +22 12 41.18  .10824 .91251  27.6 31??  294 109
2018 04 29 15  00 34 25.303   +22 12 26.59  .10856 .91227  27.6 31??  293 109
2018 04 29 16  00 34 28.414   +22 12 12.06  .10888 .91203  27.6 31??  293 109
2018 04 29 17  00 34 31.519   +22 11 57.58  .10920 .91178  27.7 31??  293 109
2018 04 29 18  00 34 34.616   +22 11 43.14  .10951 .91154  27.7 31??  293 109
2018 04 29 19  00 34 37.706   +22 11 28.76  .10983 .91130  27.7 31??  293 109
2018 04 29 20  00 34 40.789   +22 11 14.42  .11015 .91105  27.7 31??  292 109
2018 04 29 21  00 34 43.865   +22 11 00.13  .11047 .91081  27.7 31??  292 109
2018 04 29 22  00 34 46.934   +22 10 45.89  .11079 .91057  27.8 31??  292 109
2018 04 29 23  00 34 49.997   +22 10 31.70  .11110 .91032  27.8 31??  292 109
2018 04 30 00  00 34 53.053   +22 10 17.56  .11142 .91008  27.8 31??  291 109
2018 04 30 01  00 34 56.103   +22 10 03.46  .11174 .90984  27.8 31??  291 109
2018 04 30 02  00 34 59.146   +22 09 49.40  .11206 .90960  27.8 31??  291 109
2018 04 30 03  00 35 02.183   +22 09 35.40  .11238 .90935  27.9 31??  291 109
2018 04 30 04  00 35 05.214   +22 09 21.44  .11270 .90911  27.9 31??  291 109
2018 04 30 05  00 35 08.239   +22 09 07.53  .11302 .90887  27.9 31??  290 109
2018 04 30 06  00 35 11.258   +22 08 53.66  .11333 .90863  27.9 31??  290 109
2018 04 30 07  00 35 14.271   +22 08 39.83  .11365 .90839  27.9 31??  290 109
2018 04 30 08  00 35 17.278   +22 08 26.05  .11397 .90814  28.0 31??  290 109
2018 04 30 09  00 35 20.280   +22 08 12.32  .11429 .90790  28.0 31??  290 109
2018 04 30 10  00 35 23.275   +22 07 58.63  .11461 .90766  28.0 31??  289 109
2018 04 30 11  00 35 26.266   +22 07 44.98  .11493 .90742  28.0 31??  289 109
2018 04 30 12  00 35 29.251   +22 07 31.38  .11525 .90718  28.0 31??  289 109
2018 04 30 13  00 35 32.230   +22 07 17.82  .11557 .90694  28.1 31??  289 109
2018 04 30 14  00 35 35.204   +22 07 04.31  .11589 .90670  28.1 31??  289 109
2018 04 30 15  00 35 38.173   +22 06 50.83  .11621 .90646  28.1 31??  289 109
2018 04 30 16  00 35 41.137   +22 06 37.40  .11653 .90622  28.1 31??  288 109
2018 04 30 17  00 35 44.096   +22 06 24.01  .11685 .90598  28.1 31??  288 109
2018 04 30 18  00 35 47.050   +22 06 10.67  .11717 .90574  28.2 31??  288 109
2018 04 30 19  00 35 49.999   +22 05 57.36  .11749 .90550  28.2 31??  288 109
2018 04 30 20  00 35 52.943   +22 05 44.10  .11781 .90526  28.2 31??  288 109
2018 04 30 21  00 35 55.883   +22 05 30.88  .11813 .90502  28.2 31??  287 109
2018 04 30 22  00 35 58.818   +22 05 17.70  .11845 .90478  28.2 31??  287 109
2018 04 30 23  00 36 01.748   +22 05 04.56  .11877 .90454  28.3 31??  287 109
2018 05 01 00  00 36 04.674   +22 04 51.46  .11909 .90430  28.3 31??  287 109
2018 05 01 01  00 36 07.595   +22 04 38.40  .11941 .90406  28.3 31??  287 109
2018 05 01 02  00 36 10.512   +22 04 25.38  .11973 .90382  28.3 31??  287 109
2018 05 01 03  00 36 13.425   +22 04 12.40  .12005 .90358  28.3 31??  286 109
2018 05 01 04  00 36 16.334   +22 03 59.46  .12037 .90334  28.4 31??  286 109
2018 05 01 05  00 36 19.239   +22 03 46.56  .12069 .90310  28.4 31??  286 109
2018 05 01 06  00 36 22.139   +22 03 33.70  .12102 .90287  28.4 31??  286 109
2018 05 01 07  00 36 25.036   +22 03 20.88  .12134 .90263  28.4 31??  286 109
2018 05 01 08  00 36 27.928   +22 03 08.09  .12166 .90239  28.4 31??  286 109
2018 05 01 09  00 36 30.817   +22 02 55.35  .12198 .90215  28.5 31??  285 109
2018 05 01 10  00 36 33.702   +22 02 42.64  .12230 .90191  28.5 31??  285 109